User: anonymous   Login
Location: Unspecified
(41.5000°N, 0.0000°E)
Time: 11:20:34
(UTC+00:00)
Language:

Tiros 1 despin weight - Orbit

View from above orbital plane
View from above orbital plane
View from above satellite
View from above satellite

Ground track
Ground track

The orbit data is extracted from the following two-line orbital elements,

1   115U 60002D   20217.81410796 -.00000015 +00000-0 +25394-4 0  9997
2   115 048.1672 041.6824 0034338 102.0088 258.4676 14.83596268198998
Epoch (UTC): 04 August 2020 19:32:18
Eccentricity: 0.0034338
inclination: 48.1672°
perigee height: 594 km
apogee height: 642 km
right ascension of ascending node: 41.6824°
argument of perigee: 102.0088°
revolutions per day: 14.83596268
mean anomaly at epoch: 258.4676°
orbit number at epoch: 19899

The dashed part of the orbit path shows where the satellite is in the earth's shadow,  

DLR